TimeEDT,TemperatureF,Dew PointF,Humidity,Sea Level PressureIn,VisibilityMPH,Wind Direction,Wind SpeedMPH,Gust SpeedMPH,PrecipitationIn,Events,Conditions,WindDirDegrees,DateUTC
12:54 AM,64.9,63.0,93,29.99,10.0,West,3.5,-,N/A,,Overcast,270,2012-09-29 04:54:00
1:54 AM,64.9,63.0,93,29.99,10.0,WNW,3.5,-,N/A,,Mostly Cloudy,300,2012-09-29 05:54:00
2:54 AM,64.9,63.0,93,29.99,10.0,Calm,Calm,-,0.02,Rain,Light Rain,0,2012-09-29 06:54:00
3:54 AM,64.0,63.0,96,29.98,9.0,SW,4.6,-,N/A,,Overcast,220,2012-09-29 07:54:00
4:40 AM,64.4,62.6,94,30.00,5.0,NW,8.1,-,0.00,Rain-Thunderstorm,Light Thunderstorms and Rain,310,2012-09-29 08:40:00
4:54 AM,64.9,63.0,93,29.98,5.0,NW,6.9,-,0.03,Rain-Thunderstorm,Light Thunderstorms and Rain,310,2012-09-29 08:54:00
4:59 AM,64.4,62.6,94,30.00,1.5,NW,5.8,-,0.05,Rain-Thunderstorm,Heavy Thunderstorms and Rain,310,2012-09-29 08:59:00
5:04 AM,64.4,62.6,94,29.99,0.8,WNW,4.6,-,0.21,Rain-Thunderstorm,Heavy Thunderstorms and Rain,290,2012-09-29 09:04:00
5:15 AM,64.4,62.6,94,29.99,1.0,Calm,Calm,-,0.39,Rain-Thunderstorm,Thunderstorms and Rain,0,2012-09-29 09:15:00
5:21 AM,64.4,62.6,94,29.99,5.0,SSW,4.6,-,0.40,Rain,Light Rain,200,2012-09-29 09:21:00
5:31 AM,64.4,62.6,94,29.99,5.0,WSW,3.5,-,0.41,Thunderstorm,Overcast,240,2012-09-29 09:31:00
5:48 AM,64.4,62.6,94,29.99,1.8,Calm,Calm,-,0.43,Rain-Thunderstorm,Light Thunderstorms and Rain,0,2012-09-29 09:48:00
5:58 AM,64.4,62.6,94,29.99,3.0,Calm,Calm,-,0.00,Rain-Thunderstorm,Light Thunderstorms and Rain,0,2012-09-29 09:58:00
6:54 AM,64.0,63.0,96,29.97,5.0,Calm,Calm,-,0.05,Rain,Light Rain,0,2012-09-29 10:54:00
7:54 AM,64.0,63.0,96,29.98,3.0,NNE,3.5,-,0.03,Rain,Light Rain,20,2012-09-29 11:54:00
8:54 AM,64.0,63.0,96,29.99,5.0,NNE,4.6,-,0.02,Rain,Light Rain,20,2012-09-29 12:54:00
9:18 AM,64.4,62.6,94,30.01,2.5,Calm,Calm,-,0.00,Rain,Light Rain,0,2012-09-29 13:18:00
9:30 AM,64.4,62.6,94,30.01,4.0,Calm,Calm,-,0.01,Rain,Light Rain,0,2012-09-29 13:30:00
9:54 AM,64.9,63.0,93,29.99,3.0,Calm,Calm,-,0.03,Rain,Rain,0,2012-09-29 13:54:00
10:54 AM,64.9,63.0,93,29.99,4.0,Calm,Calm,-,0.04,Rain,Light Rain,0,2012-09-29 14:54:00
11:11 AM,66.2,62.6,88,30.01,8.0,NNE,3.5,-,0.00,Rain,Light Rain,30,2012-09-29 15:11:00
11:22 AM,64.4,62.6,94,30.00,10.0,Calm,Calm,-,0.00,,Overcast,0,2012-09-29 15:22:00
11:32 AM,64.4,62.6,94,29.99,8.0,ENE,3.5,-,0.00,Rain,Light Rain,60,2012-09-29 15:32:00
11:54 AM,66.0,64.0,93,29.98,7.0,NE,3.5,-,0.00,Rain,Light Rain,40,2012-09-29 15:54:00
12:01 PM,66.2,64.4,94,29.99,10.0,Calm,Calm,-,0.00,,Overcast,0,2012-09-29 16:01:00
12:21 PM,66.2,64.4,94,29.99,7.0,NNE,3.5,-,0.00,Rain,Light Rain,20,2012-09-29 16:21:00
12:54 PM,64.0,62.1,93,29.96,7.0,NE,11.5,-,0.02,Rain,Light Rain,50,2012-09-29 16:54:00
1:17 PM,62.6,60.8,94,29.97,8.0,ENE,8.1,-,0.01,Rain,Light Rain,60,2012-09-29 17:17:00
1:54 PM,62.1,61.0,96,29.95,6.0,NE,4.6,-,0.04,Rain,Light Rain,40,2012-09-29 17:54:00
2:54 PM,62.1,61.0,96,29.91,9.0,NE,8.1,-,0.04,Rain,Light Rain,50,2012-09-29 18:54:00
3:54 PM,61.0,60.1,97,29.91,5.0,ENE,6.9,-,0.01,Rain,Light Rain,60,2012-09-29 19:54:00
4:23 PM,60.8,60.8,100,29.93,0.5,NNE,8.1,-,0.00,Fog,Fog,30,2012-09-29 20:23:00
4:41 PM,60.8,59.0,94,29.93,1.5,ENE,8.1,-,0.11,Rain,Heavy Rain,60,2012-09-29 20:41:00
4:54 PM,60.1,59.0,96,29.91,1.5,East,5.8,-,0.23,Rain,Rain,80,2012-09-29 20:54:00
5:20 PM,60.8,59.0,94,29.92,3.0,East,3.5,-,0.03,Rain,Light Rain,80,2012-09-29 21:20:00
5:39 PM,60.8,60.8,100,29.91,5.0,East,6.9,-,0.06,Rain,Light Rain,100,2012-09-29 21:39:00
5:54 PM,61.0,60.1,97,29.90,7.0,Calm,Calm,-,0.06,,Overcast,0,2012-09-29 21:54:00
6:54 PM,61.0,60.1,97,29.91,8.0,Calm,Calm,-,N/A,,Overcast,0,2012-09-29 22:54:00
7:54 PM,61.0,59.0,93,29.90,6.0,NE,4.6,-,0.00,Rain,Light Rain,40,2012-09-29 23:54:00
8:54 PM,61.0,59.0,93,29.91,5.0,Calm,Calm,-,0.00,,Overcast,0,2012-09-30 00:54:00
9:46 PM,60.8,59.0,94,29.93,2.0,ENE,3.5,-,N/A,,Overcast,60,2012-09-30 01:46:00
9:54 PM,60.1,59.0,96,29.91,1.5,Calm,Calm,-,N/A,,Overcast,0,2012-09-30 01:54:00
10:54 PM,60.1,59.0,96,29.93,3.0,Calm,Calm,-,N/A,,Overcast,0,2012-09-30 02:54:00
11:06 PM,60.8,59.0,94,29.94,1.8,NNE,3.5,-,N/A,,Overcast,20,2012-09-30 03:06:00
11:12 PM,60.8,59.0,94,29.94,0.8,NNE,3.5,-,N/A,,Overcast,30,2012-09-30 03:12:00
11:54 PM,59.0,59.0,100,29.93,1.0,NNE,3.5,-,N/A,,Overcast,20,2012-09-30 03:54:00